Home   Weather   Lugano   Past weeks

Flag for Switzerland Past Weather in Lugano, Switzerland — Yesterday and Last 2 Weeks

Now
54 °F

Fog.


Feels Like: 53 °F
Forecast: 52 / 74 °F
Wind: 3 mph from North

Location: Lugano Airport

Current Time: Sep 28, 2016 at 2:18:48 AM

Latest Report: Sep 28, 2016 at 1:50 AM


Visibility: 3 mi

Pressure: 30.39 "Hg

Humidity: 100%

Dew Point: 54 °F

Location of LuganoLocation

Past Weather in Lugano — Graph

°F

Lugano Temperature Yesterday

Maximum temperature yesterday: 75 °F (at 3:20 PM)
Minimum temperature yesterday: 55 °F (at 3:20 AM)
Average temperature yesterday: 62 °F

High & Low Weather Summary for the Past Weeks

 TemperatureHumidityPressure
High86 °F (Sep 13, 4:50 PM)100% (Sep 13, 2:20 AM)30.39 "Hg (Sep 13, 2:20 AM)
Low52 °F (Sep 25, 5:20 AM)32% (Sep 19, 4:50 PM)29.80 "Hg (Sep 18, 6:50 PM)
Average64 °F81%30.05 "Hg
* Reported Sep 13 1:20 AM — Sep 28 1:20 AM, Lugano, Weather by CustomWeather, © 2016

Note: Actual official high and low records may vary slightly from our data, if they occured in-between our weather recording intervals... More about our weather records

Advertising

Lugano Weather History for the Previous 24 Hours

Scroll right to see more
 ConditionsComfort  
Time TempWeatherWind HumidityBarometerVisibility
1:20 AM
Wed, Sep 28
55 °FFog.3 mph100%30.39 "Hg1 mi
12:50 AM57 °FFog.2 mph94%30.39 "Hg3 mi
12:20 AM57 °FFog.2 mph94%30.39 "Hg2 mi
11:50 PM
Tue, Sep 27
57 °FCool.3 mph100%30.36 "Hg4 mi
11:20 PM57 °FFog.2 mph100%30.36 "Hg2 mi
10:50 PM57 °FCool.2 mph100%30.36 "Hg3 mi
10:20 PM59 °FCool.1 mph94%30.36 "Hg4 mi
9:50 PM59 °FClear.1 mph94%30.33 "Hg5 mi
9:20 PM59 °FClear.3 mph94%30.33 "Hg5 mi
8:50 PM61 °FClear.3 mph94%30.33 "Hg5 mi
8:20 PM61 °FClear.2 mph94%30.30 "Hg5 mi
7:50 PM61 °FClear.3 mph94%30.30 "Hg5 mi
7:20 PM63 °FClear.3 mph94%30.27 "Hg5 mi
6:50 PM64 °FClear.3 mph88%30.27 "Hg5 mi
6:20 PM64 °FScattered clouds.2 mph88%30.27 "Hg6 mi
5:50 PM66 °FSprinkles. Scattered clouds.6 mph83%30.27 "Hg6 mi
5:20 PM72 °FScattered showers. Scattered clouds.7 mph65%30.24 "Hg6 mi
4:50 PM75 °FThundershowers. Scattered clouds.8 mph54%30.24 "Hg6 mi
4:20 PM75 °FPassing clouds.6 mph54%30.24 "Hg6 mi
3:50 PM75 °FPassing clouds.7 mph50%30.21 "Hg6 mi
3:20 PM75 °FPassing clouds.7 mph54%30.21 "Hg6 mi
2:50 PM73 °FPassing clouds.7 mph57%30.21 "Hg6 mi
2:20 PM73 °FPassing clouds.6 mph57%30.21 "Hg5 mi
1:50 PM73 °FPassing clouds.5 mph53%30.21 "Hg5 mi
1:20 PM72 °FScattered clouds.2 mph57%30.24 "Hg4 mi
12:50 PM70 °FScattered clouds.1 mph64%30.24 "Hg4 mi
12:20 PM70 °FPartly sunny.2 mph64%30.24 "Hg4 mi
11:50 AM68 °FPassing clouds.1 mph69%30.24 "Hg4 mi
11:20 AM64 °FPartly sunny.1 mph78%30.24 "Hg4 mi
10:50 AM63 °FPartly sunny.2 mph83%30.24 "Hg4 mi
10:20 AM61 °FPartly sunny.2 mph88%30.24 "Hg4 mi
9:50 AM61 °FPartly sunny.1 mph88%30.24 "Hg5 mi
9:20 AM59 °FPartly sunny.1 mph94%30.24 "Hg5 mi
8:50 AM59 °FPartly sunny.2 mph88%30.24 "Hg5 mi
8:20 AM57 °FPartly sunny.2 mph94%30.21 "Hg5 mi
7:50 AM57 °FPartly sunny.1 mph94%30.21 "Hg5 mi
7:20 AM57 °FPartly sunny.2 mph94%30.21 "Hg5 mi
6:50 AM57 °FPassing clouds.2 mph94%30.21 "Hg6 mi
6:20 AM57 °FPartly cloudy.2 mph94%30.21 "Hg6 mi
5:50 AM55 °FMostly cloudy.2 mph100%30.21 "Hg3 mi
5:20 AM55 °FClear.1 mph100%30.21 "Hg4 mi
4:50 AM55 °FClear.1 mph100%30.21 "Hg4 mi
4:20 AM57 °FCool.1 mph94%30.21 "Hg3 mi
3:50 AM57 °FPartly cloudy.1 mph100%30.21 "Hg4 mi
3:20 AM55 °FPassing clouds.1 mph100%30.18 "Hg4 mi
2:50 AM57 °FClear.2 mph94%30.18 "Hg5 mi
2:20 AM57 °FCool.2 mph94%30.18 "Hg5 mi
Weather by CustomWeather, © 2016

See weather overviewHow to use our weather pages